Regional Weather Roundup
Issued by NWS

Home | Current Version | Previous Version | Text Only | Print | Product List | Glossary On
Versions: 1 2 3 4 5 6 7 8 9 10 11 12 13 14 15 16 17 18 19 20 21 22 23 24 25 26 27 28 29 30 31 32 33 34 35 36 37 38 39 40 41 42 43 44 45 46 47 48 49 50
024
ASUS43 KMPX 280601
RWRMN
WEATHER ROUNDUP FOR MINNESOTA
NATIONAL WEATHER SERVICE TWIN CITIES/CHANHASSEN MN
100 AM CDT FRI JUL 28 2017


NOTE: "FAIR" INDICATES FEW OR NO CLOUDS BELOW 12,000 FEET WITH NO
SIGNIFICANT WEATHER AND/OR OBSTRUCTIONS TO VISIBILITY. N/A MEANS
CURRENT SKY AND/OR WEATHER CONDITIONS ARE NOT AVAILABLE.

MNZ060>063-068>070-280700-
   Twin Cities Metro

CITY           SKY/WX    TMP DP  RH WIND       PRES   REMARKS
TWIN CITIES    PTCLDY    71  60  68 NE5       30.04F
6HR MIN TEMP:  71; 6HR MAX TEMP:  83;

ST PAUL        CLEAR     70  62  76 VRB3      30.04S
CRYSTAL        CLEAR     67  59  75 CALM      30.03F
BLAINE         CLEAR     68  61  77 CALM      30.05S
LAKEVILLE      CLEAR     61  61 100 CALM      30.05S
EDEN PRAIRIE   CLEAR     71  63  75 N3        30.04S
6HR MIN TEMP:  70; 6HR MAX TEMP:  84;

SOUTH ST PAUL  CLEAR     71  60  66 CALM      30.04S
LAKE ELMO      FAIR      66  61  82 CALM      30.05F
$$
MNZ001>005-007-008-013>017-022>024-027-028-280700-
   Northwest Minnesota

CITY           SKY/WX    TMP DP  RH WIND       PRES   REMARKS
BEMIDJI        CLEAR     56  53  89 CALM      30.09S
HALLOCK        PTCLDY    61  57  88 S5        30.05S
ROSEAU         CLEAR     63  55  77 CALM      30.07S
WARROAD        CLEAR     61  55  82 CALM      30.08S
CROOKSTON      CLEAR     64  61  88 SE6       30.07S
FOSSTON        CLEAR     57  55  94 CALM      30.09S
DETROIT LAKES  CLEAR     66  61  82 CALM      30.10S
MOORHEAD       CLEAR     64  59  82 CALM      30.07S
PARK RAPIDS    CLEAR     59  56  89 CALM      30.09S
MAHNOMEN       FAIR      62  60  93 CALM      30.09R
$$
MNZ006-009>011-018-025>026-280700-
   North Central Minnesota

CITY           SKY/WX    TMP DP  RH WIND       PRES   REMARKS
BAUDETTE       CLEAR     59  59 100 CALM      30.08S
FLAG ISLAND    CLEAR     72  61  68 CALM      30.07R
INTL FALLS     CLEAR     55  52  89 CALM      30.08S
6HR MIN TEMP:  53; 6HR MAX TEMP:  80;

WASKISH        CLEAR     57  55  94 CALM      30.09R FOG
BIG FORK       CLEAR     55  55 100 CALM      30.09S FOG
LONGVILLE      CLEAR     57  57 100 CALM      30.09S FOG
GRAND RAPIDS   CLEAR     59  59 100 CALM      30.11S
CRANE LAKE     CLEAR     54  54 100 CALM      30.10S
ORR            CLEAR     59  54  82 CALM      30.08S
COOK             N/A     57  55  94 CALM      30.10S
WALKER         FAIR      59  58  97 CALM      30.09S
$$
MNZ012-019>021-037-280700-
   Northeast Minnesota

CITY           SKY/WX    TMP DP  RH WIND       PRES   REMARKS
DULUTH         CLEAR     58  55  90 E6        30.09S
6HR MIN TEMP:  56; 6HR MAX TEMP:  69; 6HR PCP:  0.03;

ELY            CLEAR     55  54  94 CALM      30.10S
HIBBING        CLEAR     53  53 100 CALM      30.09S
EVELETH        CLEAR     54  51  89 CALM      30.11S
DULUTH HARBOR  CLEAR     63  57  82 NE9       30.09S
TWO HARBORS    CLEAR     59  54  82 CALM      30.08S
SILVER BAY     CLEAR     54  52  94 CALM      30.08S
GRAND MARAIS     N/A     59  55  87 CALM      30.07F
G MARAIS ARPRT CLEAR     52  48  87 CALM      30.12S
$$
MNZ029>031-032-039>041-046>048-054>057-064-280700-
   West Central Minnesota

CITY           SKY/WX    TMP DP  RH WIND       PRES   REMARKS
FERGUS FALLS   CLEAR     70  61  73 NE5       30.06F
WHEATON        PTCLDY    64  59  82 CALM      30.08S
ALEXANDRIA     PTCLDY    65  63  93 CALM      30.09S
ELBOW LAKE     FAIR      70  64  79 CALM      30.07S
WADENA         CLEAR     61  61 100 CALM      30.08S
GLENWOOD       PTCLDY    66  63  88 N7        30.08F
APPLETON       CLEAR     64  61  88 CALM      30.06S
BENSON         FOG       61  59  94 CALM      30.08S VSB 3/4
ORTONVILLE     PTCLDY    66  63  88 MISG        N/A
MADISON        CLEAR     66  61  82 CALM      30.06S
WILLMAR        FAIR      66  63  88 CALM      30.08S
$$
MNZ033>034-036-042>043-049>051-058-059-280700-
   Central Minnesota

CITY           SKY/WX    TMP DP  RH WIND       PRES   REMARKS
ST CLOUD       CLEAR     62  62 100 CALM      30.06S
6HR MIN TEMP:  62; 6HR MAX TEMP:  82;

SAUK CENTRE    FAIR      62  61  96 CALM      30.08R
PAYNESVILLE    PTCLDY    61  60  96 CALM      30.08R
AITKIN         CLEAR     55  54  94 CALM      30.07S FOG
PINE RIVER     CLEAR     57  57 100 CALM      30.12R
BRAINERD       CLEAR     64  61  90 CALM      30.08R
STAPLES        CLEAR     59  57  94 CALM      30.09R
LONG PRAIRIE   FAIR      63  61  94 CALM      30.09R
LITTLE FALLS   CLEAR     59  57  94 CALM      30.08R FOG
LITCHFIELD     CLEAR     68  63  83 CALM      30.08R
BUFFALO        CLEAR     64  59  82 CALM      30.06S
MAPLE LAKE     CLEAR     64  62  95 CALM      30.07S
HUTCHINSON     PTCLDY    64  62  96 CALM      30.07S
$$
MNZ037-044-045-052-053-280700-
   East Central Minnesota

CITY           SKY/WX    TMP DP  RH WIND       PRES   REMARKS
PRINCETON      CLEAR     61  61 100 N6        30.07R
MORA           CLEAR     61  57  88 CALM      30.08F
CAMBRIDGE      CLEAR     64  57  77 CALM      30.04S
RUSH CITY      CLEAR     61  58  89 CALM      30.06S
MOOSE LAKE     CLEAR     59  55  88 CALM      30.07R
HINCKLEY       FAIR      61  61 100 CALM      30.08R
CLOQUET        CLEAR     61  55  82 CALM      30.10R
MCGREGOR       CLEAR     59  55  88 CALM      30.08F
$$
MNZ071>073-080-081-089-090-097-098-280700-
   Southwest Minnesota

CITY           SKY/WX    TMP DP  RH WIND       PRES   REMARKS
MONTEVIDEO     CLEAR     63  57  82 CALM      30.06F
CANBY          CLEAR     63  61  93 CALM      30.08R
MARSHALL       CLEAR     63  61  93 W5        30.07S
REDWOOD FALLS  CLEAR     69  62  78 NE3       30.05S
OLIVIA         CLEAR     68  61  77 E3        30.06S
PIPESTONE      CLEAR     66  61  82 CALM      30.09R
WINDOM         CLEAR     64  61  88 CALM      30.07S
WORTHINGTON    CLEAR     60  58  92 CALM      30.09R
JACKSON        CLEAR     63  59  88 CALM      30.07F
TRACY          CLEAR     67  64  87 CALM      30.08R
SLAYTON        HVY RAIN  62  58  88 CALM      30.10R
$$
MNZ065>067-074>077-082>085-091>093-280700-
   South Central Minnesota

CITY           SKY/WX    TMP DP  RH WIND       PRES   REMARKS
MANKATO        PTCLDY    67  62  84 CALM      30.06R
NEW ULM        CLEAR     70  61  73 CALM      30.05S
ST JAMES       PTCLDY    64  63  94 NW3       30.06S
FAIRMONT       CLEAR     64  62  93 N5        30.06R
GLENCOE        CLEAR     65  64  96 CALM      30.06R
FARIBAULT      CLEAR     63  63 100 CALM      30.05S
OWATONNA       CLEAR     63  63 100 CALM      30.05S FOG
WASECA         CLEAR     63  59  88 N3        30.07R
ALBERT LEA     CLEAR     64  64 100 CALM      30.06R
$$
MNZ078>079-086>088-094>096-280700-
   Southeast Minnesota

CITY           SKY/WX    TMP DP  RH WIND       PRES   REMARKS
ROCHESTER      CLEAR     65  62  90 N5        30.05S
6HR MIN TEMP:  64; 6HR MAX TEMP:  78;

RED WING       CLEAR     66  61  82 CALM      30.02S
STANTON        CLEAR     64  62  94 CALM      30.03S
DODGE CENTER   CLEAR     64  61  88 CALM      30.06S
WINONA         PTCLDY    66  64  94 CALM      30.02S
AUSTIN         CLEAR     64  61  88 CALM      30.05R
PRESTON        CLEAR     65  60  82 N5        30.05S
$$
ABBREVIATIONS USED IN REMARKS
   TC - TEMPERATURES IN CELSIUS
  WCI - WIND CHILL INDEX
   HX - HEAT INDEX
  VSB - VISIBILITY
$$




USA.gov is the U.S. government's official web portal to all federal, state and local government web resources and services.